Voltar ao catálogo

CZ-4B DEB

AtivoPO
NORAD 29538·DEBRIS·🇨🇳 China

Lançado Apr 26, 2006 de Taiyuan Satellite Launch Center

Loading…

Próximas Passagens (próximas 24 horas)

TLE

AtualizadoSource: Space-Track

Época: Sep 14, 2026, 04:52 UTC

1 29538U 06015E   26257.20328016  .00058875  00000-0  15472-2 0  9997
2 29538  98.0755  45.7025 0030533 127.2960 233.1074 15.37915526 82663

Acompanhe CZ-4B DEB em tempo real com AllMySat

Download on the App Store